IRNSS-1C

Last updated on Sat Jun 21 2025 00:02:45 GMT+0000 (Coordinated Universal Time)

1 40269U 14061A 25171.37629159 -.00000153 00000+0 00000+0 0 9999 2 40269 5.5969 96.2290 0022336 7.0053 24.0975 1.00272146 39064
UTC large
Height (km)
Speed (km/s)
/
Latitude / Longitude
Inclination (degrees)
Orbital Period (minutes)
Azimuth
Elevation
Range (km)
Doppler Factor

Next 0 passes for location: London (51.5072 / 0.1276)

Sorry there are no passes over London.